Location: Clarion
(42.7316°N, 93.7330°W)
Time: 02:16:36
(UTC+00:00)

SL-16 R/B - Pass Details

Date: 22 April 2026
Orbit: 841 x 845 km, 71.0° (Epoch: 20 May)

Event Time Altitude Azimuth Distance (km) Brightness Sun altitude
Rises 08:03:39 0° 336° (NNW) 3,412 5.8 -29.5°
Reaches altitude 10° 08:06:07 10° 338° (NNW) 2,474 5.0 -29.3°
Maximum altitude 08:11:48 76° 64° (ENE) 873 2.2 -28.7°
Enters shadow 08:12:06 74° 96° (E) 880 2.2 -28.7°
